Location: Amherst
(42.5000°N, 72.5000°W)
Time: 20:19:16
(UTC-04:00)

ISS - Pass Details

Date: 17 July 2018
Orbit: 402 x 408 km, 51.6° (Epoch: 17 July)

Event Time Altitude Azimuth Distance (km) Brightness Sun altitude
Exits shadow 01:51:38 - 307° (NW) 1,528 -0.7 -25.0°
Reaches altitude 10° 01:51:51 10° 309° (NW) 1,467 -0.7 -25.0°
Maximum altitude 01:54:08 17° 353° (N) 1,109 -0.9 -24.9°
Drops below altitude 10° 01:56:25 10° 38° (NE) 1,470 -0.1 -24.8°
Sets 01:59:01 0° 59° (ENE) 2,332 0.7 -24.7°
